Location: Agadir-Ikarkaouin
(31.1503°N, 9.0246°W)
Time: 03:38:48
(UTC+00:00)

YAOGAN 1 - Pass Details

Date: 18 September 2020
Orbit: 618 x 620 km, 97.9° (Epoch: 23 October)

Event Time Altitude Azimuth Distance (km) Brightness Sun altitude
Rises 19:54:25 0° 185° (S) 2,880 5.9 -17.2°
Reaches altitude 10° 19:56:43 10° 194° (SSW) 1,978 5.2 -17.6°
Maximum altitude 20:00:41 36° 261° (W) 977 4.1 -18.5°
Drops below altitude 10° 20:04:42 10° 329° (NNW) 1,990 5.8 -19.3°
Sets 20:07:02 0° 338° (NNW) 2,899 6.5 -19.8°
